TimeCST,TemperatureF,Dew PointF,Humidity,Sea Level PressureIn,VisibilityMPH,Wind Direction,Wind SpeedMPH,Gust SpeedMPH,PrecipitationIn,Events,Conditions,WindDirDegrees,DateUTC
12:15 AM,17.2,3.2,54,30.06,10.0,South,9.2,-,N/A,,Scattered Clouds,170,2013-12-30 06:15:00
12:35 AM,17.4,3.7,55,30.06,10.0,South,9.2,-,N/A,,Mostly Cloudy,170,2013-12-30 06:35:00
12:55 AM,18.0,4.1,55,30.05,10.0,South,9.2,-,N/A,,Overcast,180,2013-12-30 06:55:00
1:15 AM,18.1,4.1,54,30.05,10.0,South,8.1,-,N/A,,Overcast,180,2013-12-30 07:15:00
1:35 AM,18.1,4.5,55,30.03,10.0,South,11.5,-,N/A,,Overcast,180,2013-12-30 07:35:00
1:55 AM,18.3,4.6,55,30.03,10.0,SSE,4.6,-,N/A,,Overcast,160,2013-12-30 07:55:00
2:15 AM,18.5,5.0,56,30.01,10.0,South,8.1,-,N/A,,Overcast,170,2013-12-30 08:15:00
2:35 AM,18.7,5.9,58,30.01,10.0,South,6.9,-,N/A,,Overcast,170,2013-12-30 08:35:00
2:55 AM,19.4,6.4,57,30.01,10.0,SSW,6.9,-,N/A,,Overcast,200,2013-12-30 08:55:00
3:15 AM,19.4,6.8,58,29.99,10.0,South,9.2,-,N/A,,Overcast,180,2013-12-30 09:15:00
3:35 AM,19.8,7.3,59,29.99,10.0,South,9.2,-,N/A,,Overcast,180,2013-12-30 09:35:00
3:55 AM,20.1,7.7,59,29.98,10.0,SSE,6.9,-,N/A,,Overcast,160,2013-12-30 09:55:00
4:15 AM,20.5,8.6,60,29.98,10.0,Calm,Calm,-,N/A,,Overcast,0,2013-12-30 10:15:00
4:35 AM,20.5,8.8,61,29.98,10.0,West,3.5,-,N/A,,Mostly Cloudy,260,2013-12-30 10:35:00
4:55 AM,21.4,10.6,63,29.97,10.0,SW,4.6,-,N/A,,Mostly Cloudy,230,2013-12-30 10:55:00
5:15 AM,20.5,10.4,65,29.98,10.0,West,4.6,-,N/A,,Overcast,280,2013-12-30 11:15:00
5:35 AM,20.7,10.8,66,29.98,10.0,West,4.6,-,N/A,,Overcast,260,2013-12-30 11:35:00
5:55 AM,19.2,10.4,69,29.99,10.0,WNW,4.6,-,N/A,,Overcast,290,2013-12-30 11:55:00
6:15 AM,17.2,9.1,71,29.99,10.0,West,3.5,-,N/A,,Scattered Clouds,260,2013-12-30 12:15:00
6:35 AM,16.7,9.3,73,29.99,10.0,Calm,Calm,-,N/A,,Clear,0,2013-12-30 12:35:00
6:55 AM,16.2,8.8,73,30.00,10.0,Calm,Calm,-,N/A,,Scattered Clouds,0,2013-12-30 12:55:00
7:15 AM,16.5,9.0,72,30.01,10.0,Calm,Calm,-,N/A,,Mostly Cloudy,0,2013-12-30 13:15:00
7:35 AM,16.3,9.5,74,30.00,10.0,Calm,Calm,-,N/A,,Scattered Clouds,0,2013-12-30 13:35:00
7:55 AM,15.6,9.1,76,30.01,10.0,Calm,Calm,-,N/A,,Clear,0,2013-12-30 13:55:00
8:15 AM,15.1,9.3,78,30.02,10.0,Calm,Calm,-,N/A,,Clear,0,2013-12-30 14:15:00
8:35 AM,15.4,9.7,78,30.03,10.0,SW,4.6,-,N/A,,Clear,220,2013-12-30 14:35:00
8:55 AM,17.6,11.7,78,30.04,10.0,Calm,Calm,-,N/A,,Clear,0,2013-12-30 14:55:00
9:15 AM,21.0,13.3,72,30.04,10.0,West,3.5,-,N/A,,Clear,270,2013-12-30 15:15:00
9:35 AM,25.3,15.4,66,30.05,10.0,WNW,5.8,-,N/A,,Clear,290,2013-12-30 15:35:00
9:55 AM,28.2,17.4,64,30.06,10.0,WNW,9.2,-,N/A,,Scattered Clouds,290,2013-12-30 15:55:00
10:15 AM,30.4,18.9,62,30.06,10.0,WNW,6.9,-,N/A,,Scattered Clouds,300,2013-12-30 16:15:00
10:35 AM,33.1,20.8,61,30.07,10.0,West,8.1,-,N/A,,Clear,280,2013-12-30 16:35:00
10:55 AM,37.6,23.0,56,30.08,10.0,West,13.8,-,N/A,,Clear,280,2013-12-30 16:55:00
11:15 AM,40.5,24.3,52,30.08,10.0,West,15.0,-,N/A,,Clear,280,2013-12-30 17:15:00
11:35 AM,43.5,25.3,49,30.08,10.0,WNW,16.1,-,N/A,,Clear,300,2013-12-30 17:35:00
11:55 AM,44.6,25.5,47,30.07,10.0,WNW,13.8,-,N/A,,Clear,300,2013-12-30 17:55:00
12:15 PM,45.5,25.3,45,30.06,10.0,WNW,18.4,23.0,N/A,,Clear,300,2013-12-30 18:15:00
12:35 PM,47.3,25.5,43,30.07,10.0,NW,21.9,27.6,N/A,,Clear,320,2013-12-30 18:35:00
12:50 PM,49.1,25.9,40,30.06,10.0,NW,21.9,27.6,N/A,,Scattered Clouds,310,2013-12-30 18:50:00
1:20 PM,48.0,23.7,39,30.07,10.0,NNW,21.9,27.6,N/A,,Mostly Cloudy,330,2013-12-30 19:20:00
1:35 PM,47.8,24.4,40,30.07,10.0,NW,21.9,27.6,N/A,,Mostly Cloudy,320,2013-12-30 19:35:00
1:55 PM,47.8,24.3,40,30.07,10.0,NNW,23.0,27.6,N/A,,Mostly Cloudy,330,2013-12-30 19:55:00
2:15 PM,48.6,24.4,39,30.08,10.0,NNW,25.3,28.8,N/A,,Mostly Cloudy,330,2013-12-30 20:15:00
2:35 PM,47.8,24.1,39,30.08,10.0,NW,17.3,27.6,N/A,,Mostly Cloudy,320,2013-12-30 20:35:00
2:55 PM,48.6,23.4,37,30.09,10.0,NNW,21.9,27.6,N/A,,Scattered Clouds,330,2013-12-30 20:55:00
3:15 PM,48.4,23.4,37,30.10,10.0,NNW,17.3,24.2,N/A,,Clear,330,2013-12-30 21:15:00
3:35 PM,48.4,23.9,38,30.11,10.0,NNW,17.3,-,N/A,,Scattered Clouds,330,2013-12-30 21:35:00
3:55 PM,47.7,23.4,38,30.11,10.0,NNW,16.1,24.2,N/A,,Scattered Clouds,330,2013-12-30 21:55:00
4:15 PM,47.1,23.5,40,30.12,10.0,NNW,15.0,23.0,N/A,,Scattered Clouds,330,2013-12-30 22:15:00
4:40 PM,45.5,23.7,42,30.13,10.0,NW,11.5,-,N/A,,Clear,320,2013-12-30 22:40:00
4:55 PM,44.2,23.4,44,30.13,10.0,NW,11.5,-,N/A,,Clear,320,2013-12-30 22:55:00
5:15 PM,40.3,22.5,49,30.13,10.0,NNW,9.2,-,N/A,,Clear,340,2013-12-30 23:15:00
5:35 PM,35.8,21.0,55,30.14,10.0,North,9.2,-,N/A,,Scattered Clouds,360,2013-12-30 23:35:00
5:55 PM,31.5,20.3,63,30.15,10.0,North,10.4,-,N/A,,Clear,10,2013-12-30 23:55:00
6:15 PM,31.1,21.6,68,30.16,10.0,North,9.2,-,N/A,,Clear,10,2013-12-31 00:15:00
6:35 PM,28.2,20.7,73,30.16,10.0,North,9.2,-,N/A,,Clear,360,2013-12-31 00:35:00
6:55 PM,28.2,21.4,76,30.18,10.0,North,3.5,-,N/A,,Clear,350,2013-12-31 00:55:00
7:15 PM,28.6,21.7,76,30.18,10.0,Calm,Calm,-,N/A,,Clear,0,2013-12-31 01:15:00
7:40 PM,26.8,21.0,79,30.19,10.0,Calm,Calm,-,N/A,,Clear,0,2013-12-31 01:40:00
7:55 PM,24.3,19.0,80,30.20,10.0,Calm,Calm,-,N/A,,Clear,0,2013-12-31 01:55:00
8:15 PM,26.1,20.5,79,30.20,10.0,Calm,Calm,-,N/A,,Clear,0,2013-12-31 02:15:00
8:35 PM,23.2,18.3,82,30.19,10.0,Calm,Calm,-,N/A,,Clear,0,2013-12-31 02:35:00
8:55 PM,21.0,16.3,82,30.20,10.0,Calm,Calm,-,N/A,,Clear,0,2013-12-31 02:55:00
9:15 PM,23.0,19.2,85,30.20,10.0,SSW,4.6,-,N/A,,Clear,210,2013-12-31 03:15:00
9:35 PM,20.7,17.6,88,30.20,10.0,Calm,Calm,-,N/A,,Clear,0,2013-12-31 03:35:00
10:00 PM,20.7,17.1,86,30.19,10.0,East,3.5,-,N/A,,Clear,90,2013-12-31 04:00:00
10:15 PM,20.3,17.4,89,30.19,10.0,ESE,3.5,-,N/A,,Clear,120,2013-12-31 04:15:00
10:35 PM,19.9,16.9,88,30.20,10.0,South,3.5,-,N/A,,Clear,180,2013-12-31 04:35:00
10:55 PM,20.5,17.6,89,30.20,10.0,SE,3.5,-,N/A,,Clear,140,2013-12-31 04:55:00
11:15 PM,22.1,19.6,90,30.20,10.0,East,3.5,-,N/A,,Clear,100,2013-12-31 05:15:00
11:35 PM,19.0,16.5,90,30.20,10.0,ESE,4.6,-,N/A,,Clear,120,2013-12-31 05:35:00
11:55 PM,22.6,19.4,87,30.20,10.0,SSE,9.2,-,N/A,,Clear,150,2013-12-31 05:55:00